Weather History for Crestview, FL

Change the Weather History Date:

Wednesday, December 19, 2012

  Actual Average Record
Temperature  
Mean Temperature 12 °C -  
Max Temperature 22 °C - - ()
Min Temperature 2 °C - - ()
Degree Days  
Heating Degree Days 12    
Growing Degree Days 3 (Base 50)    
Moisture  
Dew Point 9 °C    
Average Humidity 81    
Maximum Humidity 95    
Minimum Humidity 52    
Precipitation  
Precipitation 0.00 mm - - ()
Sea Level Pressure  
Sea Level Pressure 1017 hPa    
Wind  
Wind Speed 5 km/h (SE)    
Max Wind Speed 21 km/h    
Max Gust Speed -    
Visibility 16 kilometers    
Events      
T = Trace of Precipitation, MM = Missing Value Source: NWS Daily Summary

Daily Weather History Graph

Daily Weather History Graph

Search for Another Location

Airport:

Trip Planner

Search our weather history database for the weather conditions in past years. The results will help you decide how hot, cold, wet, or windy it might be!

Date:

Astronomy

Dec. 19, 2012 Rise Set
Actual Time 6:38 AM CST 4:48 PM CST
Civil Twilight 6:11 AM CST 5:15 PM CST
Nautical Twilight 5:41 AM CST 5:45 PM CST
Astronomical Twilight 5:12 AM CST 6:14 PM CST
Moon 11:13 AM CST (12/19) 11:47 PM CST (12/19)
Length of Visible Light 11h 03m
Length of Day
10h 09m
Waxing Crescent, 45% of the Moon is Illuminated
Dec 19
Waxing Crescent
Dec 19
First Quarter
Dec 28
Full
Jan 4
Last Quarter
Jan 11
New

Hourly Weather History & Observations

Time (CST) Temp. Dew Point Humidity Pressure Visibility Wind Dir Wind Speed Gust Speed Precip Events Conditions
12:55 AM 4.9 °C 4.1 °C 95% 1017.4 hPa 16.1 km Calm Calm - N/A   Clear
1:55 AM 3.7 °C 2.9 °C 95% 1017.3 hPa 16.1 km Calm Calm - N/A   Clear
2:55 AM 2.9 °C 2.0 °C 94% 1017.1 hPa 16.1 km Calm Calm - N/A   Clear
3:55 AM 2.5 °C 1.5 °C 93% 1017.1 hPa 16.1 km Calm Calm - N/A   Clear
4:55 AM 2.0 °C 1.0 °C 93% 1017.7 hPa 16.1 km Calm Calm - N/A   Clear
5:55 AM 1.9 °C 0.7 °C 92% 1018.3 hPa 16.1 km Calm Calm - N/A   Clear
6:55 AM 1.9 °C 1.1 °C 94% 1018.7 hPa 16.1 km Calm Calm - N/A   Clear
7:55 AM 9.5 °C 7.5 °C 87% 1019.0 hPa 16.1 km Calm Calm - N/A   Clear
8:55 AM 13.8 °C 10.1 °C 78% 1019.5 hPa 16.1 km NE 1.9 km/h / 0.5 m/s - N/A   Partly Cloudy
9:55 AM 18.3 °C 11.2 °C 63% 1019.7 hPa 16.1 km South 7.4 km/h / 2.1 m/s - N/A   Partly Cloudy
10:55 AM 20.5 °C 10.7 °C 53% 1019.3 hPa 16.1 km South 14.8 km/h / 4.1 m/s - N/A   Partly Cloudy
11:55 AM 21.0 °C 10.9 °C 52% 1018.5 hPa 16.1 km South 14.8 km/h / 4.1 m/s - N/A   Partly Cloudy
12:55 PM 21.2 °C 11.4 °C 53% 1017.5 hPa 16.1 km SSE 9.3 km/h / 2.6 m/s - N/A   Partly Cloudy
1:55 PM 21.7 °C 11.7 °C 53% 1016.8 hPa 16.1 km SSE 9.3 km/h / 2.6 m/s - N/A   Scattered Clouds
2:55 PM 20.8 °C 12.2 °C 58% 1016.5 hPa 16.1 km SSE 20.4 km/h / 5.7 m/s - N/A   Scattered Clouds
3:55 PM 19.7 °C 12.5 °C 63% 1016.9 hPa 16.1 km South 18.5 km/h / 5.1 m/s - N/A   Partly Cloudy
4:55 PM 17.5 °C 12.9 °C 74% 1017.0 hPa 16.1 km SE 7.4 km/h / 2.1 m/s - N/A   Partly Cloudy
5:55 PM 15.6 °C 12.7 °C 83% 1016.8 hPa 16.1 km SE 7.4 km/h / 2.1 m/s - N/A   Partly Cloudy
6:55 PM 15.2 °C 12.4 °C 83% 1016.9 hPa 16.1 km ESE 7.4 km/h / 2.1 m/s - N/A   Scattered Clouds
7:55 PM 15.5 °C 12.6 °C 83% 1016.6 hPa 16.1 km SE 13.0 km/h / 3.6 m/s - N/A   Partly Cloudy
8:55 PM 15.0 °C 13.0 °C 88% 1017.0 hPa 16.1 km SE 13.0 km/h / 3.6 m/s - N/A   Partly Cloudy
9:30 PM 15.0 °C 13.0 °C 88% 1016.5 hPa 16.1 km SSE 9.3 km/h / 2.6 m/s - N/A   Mostly Cloudy
9:55 PM 15.6 °C 13.8 °C 89% 1016.9 hPa 16.1 km ESE 9.3 km/h / 2.6 m/s - N/A   Mostly Cloudy
10:26 PM 15.0 °C 14.0 °C 94% 1016.1 hPa 16.1 km ESE 9.3 km/h / 2.6 m/s - N/A   Scattered Clouds
10:55 PM 15.3 °C 14.1 °C 93% 1016.2 hPa 16.1 km ESE 9.3 km/h / 2.6 m/s - N/A   Scattered Clouds
11:43 PM 15.0 °C 14.0 °C 94% 1015.5 hPa 16.1 km ESE 11.1 km/h / 3.1 m/s - N/A   Mostly Cloudy
11:55 PM 15.2 °C 13.8 °C 91% 1015.5 hPa 16.1 km ESE 11.1 km/h / 3.1 m/s - N/A   Mostly Cloudy